QPF
0.01 0.01 0.02 0.02 0.02 0.02 0.02 0.02 0.02 0.02 0.01 0.01 0.01 0.01 0.01 0.00 0.00 0.00 0.00 0.00 0.00 0.00 0.00 0.00 0.00 0.00 0.00 0.00 0.00 0.00 0.00 0.01 0.01 0.02 0.03 0.06 0.08 0.09 0.09 0.11 0.11 0.09 0.08
0.01 0.01 0.01 0.01 0.00 0.00 0.00 0.01 0.01 0.00 0.00 0.00 0.00 0.00 0.00 0.00 0.00 0.00 0.00 0.00 0.00 0.00 0.00 0.00 0.00 0.00 0.00 0.00 0.00 0.00 0.00 0.00 0.01 0.02 0.03 0.03 0.05 0.07 0.07 0.08 0.09 0.09 0.09
0.01 0.00 0.00 0.00 0.00 0.00 0.00 0.00 0.00 0.00 0.00 0.00 0.00 0.00 0.00 0.00 0.00 0.00 0.00 0.00 0.00 0.00 0.00 0.00 0.00 0.00 0.00 0.00 0.00 0.00 0.00 0.00 0.01 0.02 0.04 0.05 0.04 0.03 0.04 0.04 0.05 0.07 0.09
0.00 0.00 0.00 0.00 0.00 0.00 0.00 0.00 0.00 0.00 0.00 0.00 0.00 0.00 0.00 0.00 0.00 0.00 0.00 0.00 0.00 0.00 0.00 0.00 0.00 0.00 0.00 0.00 0.00 0.00 0.00 0.00 0.01 0.03 0.04 0.06 0.05 0.06 0.06 0.04 0.05 0.07 0.10
0.00 0.00 0.00 0.00 0.00 0.00 0.00 0.00 0.00 0.00 0.00 0.00 0.00 0.00 0.00 0.00 0.00 0.00 0.00 0.00 0.00 0.00 0.00 0.00 0.00 0.00 0.00 0.00 0.00 0.00 0.00 0.00 0.01 0.02 0.02 0.03 0.04 0.05 0.06 0.05 0.05 0.05 0.05
0.00 0.00 0.00 0.00 0.00 0.00 0.00 0.00 0.00 0.00 0.00 0.00 0.00 0.00 0.00 0.00 0.00 0.00 0.00 0.00 0.00 0.00 0.00 0.00 0.00 0.00 0.00 0.00 0.00 0.00 0.00 0.00 0.00 0.01 0.01 0.02 0.03 0.05 0.06 0.05 0.04 0.04 0.03
0.00 0.00 0.00 0.00 0.00 0.00 0.00 0.00 0.00 0.00 0.00 0.00 0.00 0.00 0.00 0.00 0.00 0.00 0.00 0.00 0.00 0.00 0.00 0.00 0.00 0.00 0.00 0.00 0.00 0.00 0.00 0.00 0.00 0.00 0.01 0.01 0.02 0.04 0.05 0.06 0.05 0.05 0.04
0.00 0.00 0.00 0.00 0.00 0.00 0.00 0.00 0.00 0.00 0.00 0.00 0.00 0.00 0.00 0.00 0.00 0.00 0.00 0.00 0.00 0.00 0.00 0.00 0.00 0.00 0.00 0.00 0.00 0.00 0.00 0.00 0.00 0.00 0.00 0.00 0.01 0.01 0.03 0.05 0.05 0.05 0.05
0.00 0.00 0.00 0.00 0.00 0.00 0.00 0.00 0.00 0.00 0.00 0.00 0.00 0.00 0.00 0.00 0.00 0.00 0.00 0.00 0.00 0.00 0.00 0.00 0.00 0.00 0.00 0.00 0.00 0.00 0.00 0.00 0.00 0.00 0.00 0.00 0.00 0.00 0.01 0.03 0.06 0.07 0.06
0.00 0.00 0.00 0.00 0.00 0.00 0.00 0.00 0.00 0.00 0.00 0.00 0.00 0.00 0.00 0.00 0.00 0.00 0.00 0.00 0.00 0.00 0.00 0.00 0.00 0.00 0.00 0.00 0.00 0.00 0.00 0.00 0.00 0.00 0.00 0.00 0.00 0.00 0.00 0.02 0.04 0.06 0.07
0.00 0.00 0.00 0.00 0.00 0.00 0.00 0.00 0.00 0.00 0.00 0.00 0.00 0.00 0.00 0.00 0.00 0.00 0.00 0.00 0.00 0.00 0.00 0.00 0.00 0.00 0.00 0.00 0.00 0.00 0.00 0.00 0.00 0.00 0.00 0.00 0.00 0.00 0.00 0.01 0.02 0.05 0.07
0.00 0.00 0.00 0.00 0.00 0.00 0.00 0.00 0.00 0.00 0.00 0.00 0.00 0.00 0.00 0.00 0.00 0.00 0.00 0.00 0.00 0.00 0.00 0.00 0.00 0.00 0.00 0.00 0.00 0.00 0.00 0.00 0.00 0.00 0.00 0.00 0.00 0.00 0.00 0.01 0.01 0.03 0.06
0.00 0.00 0.00 0.00 0.00 0.00 0.00 0.00 0.00 0.00 0.00 0.00 0.00 0.00 0.00 0.00 0.00 0.00 0.00 0.00 0.00 0.00 0.00 0.00 0.00 0.00 0.00 0.00 0.00 0.00 0.00 0.00 0.00 0.00 0.00 0.00 0.00 0.00 0.00 0.00 0.02 0.03 0.04
0.00 0.00 0.00 0.00 0.00 0.00 0.00 0.00 0.00 0.00 0.00 0.00 0.00 0.00 0.00 0.00 0.00 0.00 0.00 0.00 0.00 0.00 0.00 0.00 0.00 0.00 0.00 0.00 0.00 0.00 0.00 0.00 0.00 0.00 0.00 0.00 0.00 0.00 0.00 0.00 0.01 0.02 0.03
0.00 0.00 0.00 0.00 0.00 0.00 0.00 0.00 0.00 0.00 0.00 0.00 0.00 0.00 0.00 0.00 0.00 0.00 0.00 0.00 0.00 0.00 0.00 0.00 0.00 0.00 0.00 0.00 0.00 0.00 0.00 0.00 0.00 0.00 0.00 0.00 0.00 0.00 0.00 0.00 0.01 0.02 0.03
0.00 0.00 0.00 0.00 0.00 0.00 0.00 0.00 0.00 0.00 0.00 0.00 0.00 0.00 0.00 0.00 0.00 0.00 0.00 0.00 0.00 0.00 0.00 0.00 0.00 0.00 0.00 0.00 0.00 0.00 0.00 0.00 0.00 0.00 0.00 0.00 0.00 0.00 0.00 0.00 0.01 0.01 0.03
0.00 0.00 0.00 0.00 0.00 0.00 0.00 0.00 0.00 0.00 0.00 0.00 0.00 0.00 0.00 0.00 0.00 0.00 0.00 0.00 0.00 0.00 0.00 0.00 0.00 0.00 0.00 0.00 0.00 0.00 0.00 0.00 0.00 0.00 0.00 0.00 0.00 0.00 0.00 0.00 0.01 0.01 0.02
0.00 0.00 0.00 0.00 0.00 0.00 0.00 0.00 0.00 0.00 0.00 0.00 0.00 0.00 0.00 0.00 0.00 0.00 0.00 0.00 0.00 0.00 0.00 0.00 0.00 0.00 0.00 0.00 0.00 0.00 0.00 0.00 0.00 0.00 0.00 0.00 0.00 0.00 0.00 0.00 0.01 0.01 0.01
0.00 0.00 0.00 0.00 0.00 0.00 0.00 0.00 0.00 0.00 0.00 0.00 0.00 0.00 0.00 0.00 0.00 0.00 0.00 0.00 0.00 0.00 0.00 0.00 0.00 0.00 0.00 0.00 0.00 0.00 0.00 0.00 0.00 0.00 0.00 0.00 0.01 0.00 0.00 0.01 0.01 0.01 0.01
0.00 0.00 0.00 0.00 0.00 0.00 0.00 0.00 0.00 0.00 0.00 0.00 0.00 0.00 0.00 0.00 0.00 0.00 0.00 0.00 0.00 0.00 0.00 0.00 0.00 0.00 0.00 0.00 0.00 0.00 0.00 0.00 0.00 0.00 0.01 0.01 0.01 0.01 0.01 0.01 0.01 0.01 0.01
0.00 0.00 0.00 0.00 0.00 0.00 0.00 0.00 0.00 0.00 0.00 0.00 0.00 0.00 0.00 0.00 0.00 0.00 0.00 0.00 0.00 0.00 0.00 0.00 0.00 0.00 0.00 0.00 0.00 0.01 0.01 0.01 0.01 0.01 0.01 0.02 0.01 0.01 0.01 0.01 0.01 0.01 0.01
0.00 0.00 0.00 0.00 0.00 0.00 0.00 0.00 0.00 0.00 0.00 0.00 0.00 0.00 0.00 0.00 0.00 0.00 0.00 0.00 0.00 0.00 0.00 0.00 0.00 0.00 0.00 0.01 0.01 0.01 0.01 0.00 0.01 0.01 0.02 0.02 0.02 0.02 0.01 0.01 0.01 0.01 0.01
0.00 0.00 0.00 0.00 0.00 0.00 0.00 0.00 0.00 0.00 0.00 0.00 0.00 0.00 0.00 0.00 0.00 0.00 0.00 0.00 0.00 0.00 0.00 0.00 0.00 0.00 0.01 0.01 0.01 0.01 0.01 0.00 0.00 0.01 0.02 0.03 0.03 0.03 0.02 0.02 0.02 0.03 0.02
0.00 0.00 0.00 0.00 0.00 0.00 0.00 0.00 0.00 0.00 0.00 0.00 0.00 0.00 0.00 0.00 0.00 0.00 0.00 0.00 0.00 0.00 0.00 0.00 0.01 0.01 0.01 0.02 0.02 0.01 0.01 0.01 0.01 0.01 0.03 0.04 0.06 0.05 0.04 0.04 0.04 0.04 0.04
0.00 0.00 0.00 0.00 0.00 0.00 0.00 0.00 0.00 0.00 0.00 0.00 0.00 0.00 0.00 0.00 0.00 0.00 0.00 0.00 0.00 0.00 0.00 0.01 0.01 0.02 0.02 0.02 0.03 0.03 0.02 0.02 0.02 0.02 0.02 0.04 0.06 0.08 0.07 0.07 0.07 0.06 0.05
0.00 0.00 0.00 0.00 0.00 0.00 0.00 0.00 0.00 0.00 0.00 0.00 0.00 0.00 0.00 0.00 0.00 0.00 0.00 0.00 0.00 0.00 0.00 0.00 0.01 0.02 0.03 0.03 0.02 0.02 0.01 0.01 0.02 0.02 0.03 0.05 0.06 0.08 0.10 0.10 0.08 0.06 0.05
MSLP
1015.41 1015.48 1015.54 1015.57 1015.54 1015.47 1015.39 1015.33 1015.33 1015.42 1015.58 1015.82 1016.08 1016.32 1016.50 1016.59 1016.56 1016.42 1016.22 1015.97 1015.74 1015.56 1015.46 1015.44 1015.50 1015.60 1015.71 1015.80 1015.82 1015.75 1015.58 1015.32 1014.98 1014.58 1014.15 1013.71 1013.28 1012.87 1012.50 1012.18 1011.91 1011.70 1011.57
1015.29 1015.38 1015.45 1015.48 1015.44 1015.37 1015.30 1015.26 1015.30 1015.45 1015.69 1016.00 1016.33 1016.61 1016.80 1016.86 1016.77 1016.56 1016.27 1015.94 1015.64 1015.41 1015.28 1015.25 1015.31 1015.42 1015.53 1015.61 1015.63 1015.56 1015.40 1015.17 1014.87 1014.52 1014.15 1013.77 1013.37 1012.97 1012.57 1012.18 1011.81 1011.48 1011.22
1015.02 1015.13 1015.24 1015.29 1015.29 1015.23 1015.18 1015.17 1015.25 1015.45 1015.74 1016.10 1016.47 1016.78 1016.97 1017.01 1016.88 1016.61 1016.26 1015.87 1015.52 1015.26 1015.10 1015.06 1015.11 1015.20 1015.30 1015.37 1015.39 1015.32 1015.19 1015.00 1014.77 1014.51 1014.23 1013.92 1013.59 1013.21 1012.80 1012.35 1011.89 1011.43 1011.03
1014.64 1014.80 1014.96 1015.06 1015.10 1015.08 1015.05 1015.07 1015.18 1015.39 1015.72 1016.10 1016.48 1016.80 1016.99 1017.01 1016.86 1016.57 1016.19 1015.78 1015.41 1015.13 1014.96 1014.90 1014.92 1014.99 1015.07 1015.12 1015.12 1015.06 1014.96 1014.83 1014.68 1014.51 1014.33 1014.12 1013.86 1013.53 1013.11 1012.62 1012.07 1011.50 1010.97
1014.23 1014.45 1014.68 1014.85 1014.94 1014.96 1014.96 1014.98 1015.09 1015.31 1015.62 1016.00 1016.37 1016.68 1016.87 1016.89 1016.74 1016.45 1016.08 1015.68 1015.32 1015.03 1014.85 1014.77 1014.77 1014.80 1014.84 1014.86 1014.84 1014.80 1014.72 1014.65 1014.57 1014.50 1014.42 1014.30 1014.11 1013.82 1013.41 1012.89 1012.28 1011.63 1011.00
1013.86 1014.16 1014.46 1014.70 1014.84 1014.90 1014.92 1014.94 1015.03 1015.21 1015.48 1015.82 1016.16 1016.45 1016.63 1016.67 1016.54 1016.29 1015.95 1015.59 1015.25 1014.98 1014.80 1014.69 1014.65 1014.64 1014.64 1014.62 1014.57 1014.52 1014.47 1014.43 1014.43 1014.43 1014.43 1014.39 1014.26 1014.02 1013.63 1013.10 1012.46 1011.76 1011.06
1013.59 1013.96 1014.34 1014.65 1014.85 1014.94 1014.95 1014.96 1015.00 1015.12 1015.33 1015.61 1015.90 1016.16 1016.34 1016.38 1016.29 1016.09 1015.81 1015.49 1015.20 1014.95 1014.76 1014.64 1014.56 1014.50 1014.44 1014.37 1014.30 1014.23 1014.18 1014.17 1014.20 1014.26 1014.32 1014.33 1014.26 1014.05 1013.69 1013.18 1012.55 1011.84 1011.12
1013.46 1013.90 1014.35 1014.72 1014.95 1015.06 1015.07 1015.03 1015.02 1015.07 1015.20 1015.40 1015.63 1015.85 1016.00 1016.06 1016.01 1015.86 1015.63 1015.37 1015.12 1014.89 1014.71 1014.57 1014.45 1014.34 1014.23 1014.11 1014.00 1013.90 1013.85 1013.84 1013.89 1013.97 1014.06 1014.10 1014.06 1013.89 1013.57 1013.11 1012.51 1011.84 1011.15
1013.47 1013.97 1014.47 1014.87 1015.13 1015.24 1015.23 1015.16 1015.08 1015.05 1015.09 1015.20 1015.36 1015.53 1015.66 1015.72 1015.69 1015.58 1015.41 1015.20 1014.98 1014.78 1014.59 1014.43 1014.28 1014.12 1013.97 1013.81 1013.66 1013.53 1013.46 1013.44 1013.48 1013.56 1013.64 1013.70 1013.68 1013.54 1013.27 1012.86 1012.35 1011.75 1011.13
1013.58 1014.12 1014.65 1015.08 1015.34 1015.45 1015.41 1015.29 1015.15 1015.04 1015.00 1015.02 1015.11 1015.21 1015.30 1015.35 1015.33 1015.25 1015.11 1014.94 1014.75 1014.55 1014.37 1014.19 1014.01 1013.83 1013.64 1013.45 1013.27 1013.11 1013.01 1012.97 1012.98 1013.03 1013.10 1013.15 1013.13 1013.03 1012.81 1012.48 1012.06 1011.57 1011.05
1013.74 1014.30 1014.84 1015.26 1015.52 1015.60 1015.54 1015.38 1015.18 1015.01 1014.89 1014.84 1014.85 1014.89 1014.94 1014.95 1014.92 1014.84 1014.72 1014.56 1014.38 1014.19 1014.01 1013.82 1013.63 1013.43 1013.22 1013.01 1012.82 1012.65 1012.52 1012.45 1012.42 1012.44 1012.48 1012.50 1012.48 1012.40 1012.23 1011.98 1011.66 1011.29 1010.90
1013.91 1014.46 1014.97 1015.37 1015.59 1015.65 1015.56 1015.37 1015.14 1014.92 1014.75 1014.63 1014.58 1014.56 1014.55 1014.53 1014.47 1014.37 1014.23 1014.07 1013.89 1013.70 1013.52 1013.33 1013.13 1012.93 1012.72 1012.52 1012.32 1012.14 1011.99 1011.90 1011.84 1011.82 1011.82 1011.82 1011.79 1011.72 1011.60 1011.42 1011.19 1010.94 1010.66
1014.02 1014.54 1015.00 1015.34 1015.53 1015.55 1015.43 1015.23 1014.98 1014.74 1014.54 1014.39 1014.29 1014.21 1014.15 1014.08 1013.98 1013.85 1013.68 1013.50 1013.31 1013.12 1012.93 1012.74 1012.55 1012.36 1012.16 1011.97 1011.78 1011.60 1011.45 1011.33 1011.25 1011.20 1011.16 1011.13 1011.09 1011.02 1010.93 1010.81 1010.67 1010.50 1010.33
1014.06 1014.51 1014.90 1015.17 1015.30 1015.28 1015.16 1014.95 1014.71 1014.48 1014.27 1014.10 1013.97 1013.86 1013.76 1013.64 1013.49 1013.32 1013.12 1012.91 1012.70 1012.49 1012.29 1012.10 1011.92 1011.74 1011.56 1011.38 1011.21 1011.04 1010.89 1010.76 1010.66 1010.58 1010.52 1010.46 1010.40 1010.34 1010.27 1010.19 1010.10 1010.00 1009.90
1013.99 1014.36 1014.66 1014.85 1014.92 1014.87 1014.74 1014.55 1014.34 1014.13 1013.95 1013.80 1013.66 1013.53 1013.39 1013.23 1013.04 1012.83 1012.59 1012.35 1012.11 1011.87 1011.66 1011.46 1011.28 1011.10 1010.93 1010.77 1010.60 1010.45 1010.30 1010.18 1010.06 1009.97 1009.88 1009.81 1009.74 1009.68 1009.62 1009.55 1009.49 1009.44 1009.38
1013.82 1014.10 1014.30 1014.40 1014.42 1014.35 1014.23 1014.07 1013.91 1013.75 1013.61 1013.49 1013.36 1013.23 1013.08 1012.89 1012.66 1012.41 1012.13 1011.85 1011.57 1011.31 1011.06 1010.84 1010.64 1010.46 1010.28 1010.12 1009.96 1009.81 1009.67 1009.55 1009.44 1009.33 1009.25 1009.17 1009.09 1009.03 1008.96 1008.91 1008.86 1008.82 1008.78
1013.56 1013.74 1013.85 1013.88 1013.85 1013.78 1013.67 1013.56 1013.45 1013.36 1013.27 1013.19 1013.10 1012.98 1012.82 1012.61 1012.36 1012.07 1011.75 1011.43 1011.10 1010.79 1010.51 1010.25 1010.02 1009.80 1009.61 1009.43 1009.27 1009.12 1008.98 1008.86 1008.75 1008.66 1008.57 1008.50 1008.43 1008.36 1008.30 1008.25 1008.20 1008.16 1008.12
1013.22 1013.32 1013.35 1013.33 1013.28 1013.20 1013.13 1013.06 1013.02 1012.99 1012.96 1012.93 1012.87 1012.76 1012.60 1012.38 1012.11 1011.78 1011.43 1011.05 1010.68 1010.32 1009.98 1009.67 1009.39 1009.13 1008.90 1008.69 1008.51 1008.35 1008.21 1008.09 1007.99 1007.91 1007.84 1007.78 1007.72 1007.67 1007.62 1007.57 1007.52 1007.47 1007.43
1012.81 1012.85 1012.84 1012.79 1012.73 1012.67 1012.63 1012.62 1012.63 1012.65 1012.68 1012.68 1012.65 1012.55 1012.39 1012.16 1011.86 1011.50 1011.11 1010.69 1010.26 1009.85 1009.45 1009.08 1008.74 1008.43 1008.15 1007.90 1007.69 1007.51 1007.37 1007.26 1007.17 1007.10 1007.05 1007.01 1006.98 1006.94 1006.90 1006.86 1006.81 1006.77 1006.73
1012.34 1012.36 1012.33 1012.29 1012.24 1012.21 1012.21 1012.24 1012.29 1012.36 1012.41 1012.43 1012.40 1012.31 1012.13 1011.88 1011.55 1011.17 1010.74 1010.27 1009.80 1009.33 1008.88 1008.45 1008.05 1007.69 1007.37 1007.09 1006.85 1006.65 1006.50 1006.39 1006.31 1006.26 1006.23 1006.21 1006.20 1006.18 1006.16 1006.13 1006.10 1006.07 1006.04
1011.82 1011.85 1011.85 1011.84 1011.82 1011.83 1011.86 1011.92 1012.00 1012.08 1012.13 1012.15 1012.11 1011.99 1011.79 1011.51 1011.16 1010.74 1010.27 1009.77 1009.26 1008.75 1008.26 1007.79 1007.35 1006.95 1006.59 1006.28 1006.02 1005.82 1005.66 1005.55 1005.47 1005.43 1005.41 1005.41 1005.41 1005.41 1005.41 1005.40 1005.39 1005.38 1005.37
1011.26 1011.34 1011.39 1011.42 1011.46 1011.51 1011.57 1011.65 1011.73 1011.80 1011.83 1011.82 1011.74 1011.59 1011.36 1011.04 1010.65 1010.20 1009.71 1009.19 1008.65 1008.12 1007.60 1007.11 1006.65 1006.23 1005.86 1005.55 1005.28 1005.07 1004.91 1004.80 1004.72 1004.68 1004.66 1004.66 1004.66 1004.67 1004.68 1004.69 1004.70 1004.72 1004.75
1010.66 1010.82 1010.94 1011.04 1011.13 1011.22 1011.31 1011.39 1011.46 1011.50 1011.50 1011.45 1011.32 1011.12 1010.84 1010.48 1010.06 1009.59 1009.08 1008.54 1008.00 1007.46 1006.95 1006.46 1006.01 1005.61 1005.25 1004.94 1004.68 1004.47 1004.31 1004.20 1004.11 1004.06 1004.02 1004.00 1004.00 1004.00 1004.01 1004.03 1004.06 1004.11 1004.17
1010.05 1010.28 1010.48 1010.65 1010.80 1010.93 1011.04 1011.13 1011.18 1011.19 1011.15 1011.04 1010.86 1010.61 1010.28 1009.89 1009.44 1008.95 1008.43 1007.89 1007.36 1006.84 1006.35 1005.89 1005.47 1005.10 1004.77 1004.49 1004.26 1004.06 1003.91 1003.78 1003.68 1003.60 1003.53 1003.48 1003.45 1003.43 1003.42 1003.44 1003.48 1003.55 1003.64
1009.43 1009.73 1010.00 1010.24 1010.44 1010.61 1010.74 1010.83 1010.87 1010.86 1010.77 1010.62 1010.40 1010.10 1009.74 1009.32 1008.85 1008.35 1007.83 1007.31 1006.80 1006.31 1005.86 1005.44 1005.07 1004.74 1004.46 1004.22 1004.01 1003.84 1003.68 1003.55 1003.42 1003.31 1003.20 1003.11 1003.03 1002.97 1002.94 1002.95 1002.99 1003.07 1003.18
1008.81 1009.17 1009.49 1009.78 1010.03 1010.23 1010.39 1010.49 1010.53 1010.50 1010.39 1010.22 1009.96 1009.64 1009.26 1008.82 1008.34 1007.84 1007.33 1006.83 1006.34 1005.89 1005.48 1005.11 1004.79 1004.52 1004.28 1004.08 1003.91 1003.75 1003.60 1003.45 1003.30 1003.15 1003.00 1002.85 1002.73 1002.63 1002.57 1002.55 1002.58 1002.66 1002.79
Thickness
5728 5728 5727 5725 5724 5721 5719 5717 5715 5713 5709 5706 5702 5698 5695 5693 5691 5689 5687 5685 5684 5682 5681 5679 5678 5676 5675 5674 5674 5675 5676 5677 5680 5682 5687 5694 5699 5702 5705 5706 5708 5710 5712
5722 5723 5722 5721 5719 5717 5715 5713 5710 5707 5704 5700 5696 5692 5688 5685 5682 5681 5679 5678 5676 5674 5673 5671 5670 5668 5667 5666 5666 5666 5666 5667 5670 5671 5674 5679 5687 5694 5700 5701 5703 5706 5708
5720 5720 5719 5718 5716 5714 5712 5710 5706 5703 5699 5695 5690 5685 5681 5677 5674 5673 5671 5670 5668 5666 5665 5664 5662 5661 5659 5658 5658 5657 5657 5656 5659 5661 5662 5665 5670 5678 5688 5693 5697 5699 5702
5722 5720 5719 5717 5715 5714 5711 5707 5703 5699 5695 5690 5685 5680 5674 5670 5667 5665 5662 5661 5660 5659 5657 5656 5655 5653 5652 5651 5650 5650 5649 5648 5649 5651 5654 5657 5660 5663 5672 5681 5687 5692 5695
5724 5722 5721 5719 5717 5714 5710 5706 5701 5696 5691 5686 5681 5675 5669 5665 5661 5658 5655 5653 5652 5651 5649 5648 5647 5645 5644 5643 5642 5642 5641 5640 5641 5642 5644 5648 5652 5655 5658 5666 5674 5680 5687
5727 5725 5723 5720 5716 5713 5709 5703 5698 5692 5687 5681 5676 5670 5664 5660 5655 5652 5649 5646 5644 5643 5642 5640 5639 5637 5636 5635 5634 5634 5633 5633 5633 5634 5635 5637 5641 5645 5648 5654 5661 5668 5677
5727 5724 5721 5718 5714 5710 5705 5699 5693 5687 5681 5675 5670 5665 5660 5655 5650 5647 5643 5640 5638 5636 5635 5633 5631 5629 5628 5627 5626 5625 5625 5625 5626 5627 5628 5630 5633 5636 5639 5643 5650 5657 5667
5726 5723 5720 5715 5711 5706 5700 5694 5687 5681 5675 5670 5665 5660 5655 5650 5646 5642 5639 5635 5633 5631 5628 5626 5623 5622 5620 5619 5618 5616 5616 5617 5618 5619 5620 5622 5625 5628 5631 5635 5640 5646 5656
5724 5721 5716 5711 5706 5701 5694 5688 5681 5675 5670 5665 5660 5656 5651 5647 5642 5639 5635 5631 5628 5625 5623 5619 5617 5615 5612 5611 5609 5608 5608 5608 5609 5610 5612 5614 5617 5619 5623 5627 5631 5635 5642
5719 5716 5710 5705 5699 5694 5688 5682 5676 5671 5666 5661 5656 5653 5648 5643 5639 5634 5630 5626 5623 5620 5616 5613 5610 5608 5606 5604 5602 5600 5600 5600 5601 5602 5603 5605 5608 5611 5614 5618 5623 5628 5633
5714 5709 5703 5698 5693 5687 5682 5676 5671 5666 5662 5657 5652 5647 5643 5639 5634 5629 5625 5622 5618 5614 5610 5607 5604 5601 5599 5596 5594 5593 5592 5592 5593 5593 5595 5598 5600 5603 5606 5610 5615 5620 5626
5708 5702 5697 5692 5686 5681 5676 5671 5667 5662 5658 5653 5648 5643 5639 5634 5629 5625 5621 5617 5612 5608 5604 5601 5597 5595 5592 5590 5587 5586 5586 5585 5585 5586 5587 5589 5592 5595 5598 5601 5606 5612 5618
5702 5696 5691 5686 5681 5676 5672 5667 5663 5659 5655 5649 5644 5639 5634 5629 5624 5620 5616 5611 5607 5603 5599 5595 5591 5589 5586 5584 5581 5580 5579 5578 5578 5578 5579 5581 5583 5586 5589 5593 5598 5603 5610
5697 5691 5686 5681 5677 5672 5668 5664 5660 5656 5651 5645 5639 5634 5629 5624 5619 5615 5610 5606 5601 5597 5593 5589 5585 5582 5580 5577 5575 5573 5572 5571 5571 5571 5571 5572 5574 5577 5580 5584 5589 5594 5600
5694 5689 5683 5678 5673 5669 5665 5660 5656 5652 5647 5640 5635 5630 5625 5619 5614 5609 5605 5600 5596 5592 5587 5583 5580 5576 5573 5572 5570 5567 5566 5564 5564 5563 5563 5564 5566 5568 5571 5575 5580 5584 5590
5692 5687 5682 5677 5671 5667 5662 5658 5653 5648 5642 5636 5630 5626 5620 5615 5609 5605 5600 5595 5590 5586 5581 5577 5574 5571 5569 5567 5563 5560 5558 5557 5556 5555 5555 5555 5557 5561 5564 5568 5572 5576 5581
5691 5686 5681 5676 5670 5665 5660 5654 5650 5644 5637 5631 5626 5621 5615 5610 5605 5600 5594 5589 5584 5580 5575 5572 5568 5565 5563 5559 5556 5553 5550 5549 5548 5547 5547 5548 5551 5552 5554 5558 5563 5568 5574
5690 5685 5680 5674 5669 5663 5657 5651 5645 5639 5633 5627 5622 5617 5611 5605 5600 5594 5589 5584 5579 5574 5570 5567 5563 5559 5557 5554 5550 5546 5543 5541 5540 5538 5538 5538 5540 5542 5544 5547 5552 5558 5564
5692 5686 5680 5674 5667 5661 5654 5647 5641 5635 5628 5623 5618 5612 5606 5600 5595 5589 5584 5579 5573 5569 5565 5561 5557 5554 5551 5547 5543 5539 5536 5533 5531 5530 5529 5529 5531 5533 5533 5537 5542 5547 5554
5690 5684 5678 5670 5663 5658 5650 5642 5637 5630 5625 5620 5614 5608 5602 5595 5590 5584 5579 5574 5569 5564 5560 5557 5553 5548 5545 5542 5537 5532 5528 5526 5524 5522 5521 5521 5522 5523 5524 5527 5532 5537 5544
5689 5682 5675 5667 5661 5655 5646 5638 5633 5627 5623 5616 5610 5604 5598 5591 5585 5580 5575 5570 5565 5560 5556 5552 5549 5544 5540 5536 5531 5526 5521 5519 5517 5515 5514 5514 5514 5515 5515 5517 5522 5528 5532
5686 5679 5671 5664 5659 5651 5642 5635 5630 5626 5619 5612 5606 5600 5594 5587 5583 5576 5571 5565 5560 5555 5551 5547 5544 5540 5535 5530 5526 5521 5516 5512 5510 5509 5508 5508 5507 5507 5507 5509 5512 5515 5519
5683 5676 5668 5661 5654 5647 5639 5632 5629 5622 5614 5607 5601 5595 5589 5583 5577 5571 5566 5561 5556 5551 5548 5544 5540 5537 5532 5526 5521 5516 5512 5508 5505 5504 5502 5501 5499 5499 5500 5500 5503 5505 5511
5679 5672 5663 5656 5650 5644 5637 5631 5625 5618 5609 5603 5596 5590 5584 5579 5573 5567 5562 5557 5554 5549 5545 5541 5537 5533 5528 5523 5517 5512 5508 5504 5501 5499 5497 5495 5494 5493 5494 5495 5497 5500 5505
5676 5667 5660 5653 5648 5642 5635 5629 5621 5613 5605 5598 5592 5586 5580 5574 5569 5564 5559 5555 5551 5545 5541 5538 5533 5528 5525 5520 5513 5507 5504 5500 5496 5494 5493 5492 5491 5491 5491 5491 5493 5496 5500
5672 5663 5656 5650 5644 5637 5631 5625 5617 5608 5600 5593 5587 5581 5575 5570 5565 5561 5558 5555 5550 5545 5540 5534 5528 5525 5520 5515 5509 5504 5500 5496 5492 5490 5491 5491 5490 5490 5490 5491 5492 5495 5499